Regional Weather Roundup
Issued by NWS Jackson, KY

Home | Current Version | Previous Version | Graphics & Text | Print | Product List | Glossary On
Versions: 1 2 3 4 5 6 7 8 9 10 11 12 13 14 15 16 17 18 19 20 21 22 23 24 25 26 27 28 29 30 31 32 33 34 35 36 37 38 39 40 41 42 43 44 45 46 47 48 49 50
859
ASUS43 KJKL 111410
RWRJKL

EAST KENTUCKY HOURLY WEATHER ROUNDUP
NATIONAL WEATHER SERVICE JACKSON KY
900 AM EST THU FEB 11 2016

NOTE: "FAIR" INDICATES FEW OR NO CLOUDS BELOW 12,000 FEET WITH
NO SIGNIFICANT WEATHER AND/OR OBSTRUCTIONS TO VISIBILITY.

* THESE REPORTS ARE NOT UNDER NWS QUALITY CONTROL AND MAY NOT
  REPORT WEATHER SUCH AS PRECIPITATION AND FOG.

KYZ079-080-083-085-087-088-110-112-115-119-120-111500
...EASTERN KENTUCKY...

CITY           SKY/WX    TMP DP  RH WIND       PRES   REMARKS
JACKSON        CLOUDY    17   8  67 CALM      30.22R
LONDON         CLOUDY    21  13  71 N3        30.23R
SOMERSET*      CLOUDY    21  16  79 CALM      30.27R
MONTICELLO*    CLOUDY    25  17  72 N9        30.26R WCI  15
WILLIAMSBURG*  CLOUDY    23  18  80 CALM      30.23R
MIDDLESBORO*   CLOUDY    23  16  73 CALM      30.22R
HARLAN APT*    CLOUDY    21  16  79 CALM      30.19R
BLACK MTN*       N/A     10  10 100 CALM        N/A
BIG SANDY*     CLOUDY    17   8  68 NW3       30.24R
MOREHEAD APT*  MOSUNNY   18   7  62 CALM      30.26R
$$

KYZ035-036-041-042-044-050-067-078-099-111500
...CENTRAL KENTUCKY...

CITY           SKY/WX    TMP DP  RH WIND       PRES   REMARKS
MT STERLING*   SUNNY     18  12  79 CALM      30.27R
DANVILLE*      CLOUDY    19  14  79 N3        30.25R
RICHMOND*      CLOUDY    19  12  73 N3        30.25R
LEXINGTON      SUNNY     19   9  65 NE5       30.25R WCI  12
FRANKFORT      SUNNY     18   8  65 NW3       30.26R
$$

KYZ091>093-OHZ055-061-077-WVZ005-015-034-035-042-111500
...SOUTHERN OHIO/WEST VIRGINIA...

CITY           SKY/WX    TMP DP  RH WIND       PRES   REMARKS
COVINGTON      MOSUNNY   14   7  73 CALM      30.25R
COLUMBUS       CLOUDY    12   4  70 W6        30.22R WCI   3
DAYTON         PTSUNNY   11   5  77 NW7       30.23R WCI   0
WILMINGTON     SUNNY     10   5  80 W6        30.22R WCI   0
HUNTINGTON     PTSUNNY   18   5  57 NW6       30.25R WCI  10
CHARLESTON       N/A     17   4  56 W6        30.23R WCI   9
PINEVILLE*       N/A     17   4  57 MISG      30.21R
BECKLEY        LGT SNOW  11   5  77 NW9       30.07R WCI  -2
$$

VAZ002-007-008-TNZ017-027-036-066-071-111500
...SOUTHWEST VIRGINIA/EAST TENNESSEE...

CITY           SKY/WX    TMP DP  RH WIND       PRES   REMARKS
BRISTOL        CLOUDY    23  13  65 W5        30.18R WCI  17
KNOXVILLE      CLOUDY    28  19  69 W6        30.22R WCI  22
OAK RIDGE      CLOUDY    28  18  66 W5        30.24R WCI  23
CROSSVILLE     CLOUDY    25  19  78 CALM      30.16R
NASHVILLE      CLOUDY    28  21  75 E5        30.25R WCI  23
$$

...KEY TO REMARKS...
VSB - VISIBILITY IN MILES
WCI - WIND CHILL INDEX
HX  - HEAT INDEX

$$




USA.gov is the U.S. government's official web portal to all federal, state and local government web resources and services.